User: anonymous   Login
Location: *
(10.4782°N, 67.2163°W)
Time: 14:48:57
(UTC+00:00)
Language:

Feng Yun 1-1 Rocket - Orbit

View from above orbital plane
View from above orbital plane
View from above satellite
View from above satellite

Ground track
Ground track

The orbit data is extracted from the following two-line orbital elements,

1 19468U 88080B   24195.92302966  .00000412  00000-0  28364-3 0  9993
2 19468  99.0619 239.7782 0072220  85.9889 330.5963 14.03673441835527
Epoch (UTC): 13 July 2024 22:09:09
Eccentricity: 0.0072220
inclination: 99.0619°
perigee height: 828 km
apogee height: 933 km
right ascension of ascending node: 239.7782°
argument of perigee: 85.9889°
revolutions per day: 14.03673441
mean anomaly at epoch: 330.5963°
orbit number at epoch: 83552

The dashed part of the orbit path shows where the satellite is in the earth's shadow,  

DLR